This is the latest recevied weather packets stored in our database for station/object AF9W-5. If no packets are shown the sender has not sent any weather packets the latest 1 day(s).
| Time | Temp. | Humidity | Pressure | Rain* | Wind** | Luminosity | Snow |
|---|---|---|---|---|---|---|---|
| 1778000160 | 16.67° C | 73% | 1012.2 hPa | 0 mm | 0.89 m/s, 149° | 282 W/m² | - |
| 1777999856 | 16.67° C | 73% | 1012.2 hPa | 0 mm | 0.45 m/s, 189° | 354 W/m² | - |
| 1777999552 | 16.67° C | 75% | 1012.5 hPa | 0 mm | 0.89 m/s, 161° | 332 W/m² | - |
| 1777999250 | 16.11° C | 76% | 1012.3 hPa | 0 mm | 0.89 m/s, 188° | 426 W/m² | - |
| 1777998948 | 15.56° C | 78% | 1012.2 hPa | 0 mm | 0.45 m/s, 167° | 945 W/m² | - |
| 1777998645 | 15.56° C | 79% | 1012.1 hPa | 0 mm | 0.45 m/s, 158° | 265 W/m² | - |
| 1777998343 | 15.56° C | 80% | 1012.3 hPa | 0 mm | 0.45 m/s, 123° | 232 W/m² | - |
| 1777998041 | 15° C | 81% | 1012.4 hPa | 0 mm | 0.45 m/s, 168° | 207 W/m² | - |
| 1777997737 | 15° C | 81% | 1012.3 hPa | 0 mm | 0.89 m/s, 229° | 159 W/m² | - |
| 1777997435 | 15° C | 82% | 1012.3 hPa | 0 mm | 1.34 m/s, 155° | 117 W/m² | - |
| 1777997133 | 15.56° C | 85% | 1012.4 hPa | 0 mm | 0.45 m/s, 132° | 131 W/m² | - |
| 1777996830 | 15° C | 86% | 1012.3 hPa | 0 mm | 0 m/s | 165 W/m² | - |
| 1777996526 | 15° C | 85% | 1012.2 hPa | 0 mm | 0.89 m/s, 162° | 194 W/m² | - |
| 1777996222 | 15° C | 86% | 1012.2 hPa | 0 mm | 0.45 m/s, 143° | 191 W/m² | - |
| 1777995919 | 15° C | 86% | 1012.2 hPa | 0 mm | 1.34 m/s, 175° | 169 W/m² | - |
| 1777995615 | 15° C | 87% | 1012.2 hPa | 0 mm | 0.45 m/s, 124° | 211 W/m² | - |
| 1777995313 | 15° C | 88% | 1012 hPa | 0 mm | 0.45 m/s, 194° | 200 W/m² | - |
| 1777995009 | 14.44° C | 88% | 1012.2 hPa | 0 mm | 0.45 m/s, 101° | 157 W/m² | - |
| 1777994706 | 14.44° C | 89% | 1012.3 hPa | 0 mm | 0.45 m/s, 179° | 96 W/m² | - |
| 1777994402 | 14.44° C | 89% | 1012.2 hPa | 0 mm | 0.45 m/s, 168° | 86 W/m² | - |
| 1777994097 | 14.44° C | 90% | 1012 hPa | 0 mm | 0.45 m/s, 165° | 107 W/m² | - |
| 1777993795 | 14.44° C | 89% | 1012 hPa | 0 mm | 0 m/s | 116 W/m² | - |
| 1777993491 | 14.44° C | 90% | 1012.1 hPa | 0 mm | 0.89 m/s, 161° | 74 W/m² | - |
| 1777993191 | 14.44° C | 91% | 1012 hPa | 0 mm | 0 m/s | 141 W/m² | - |
| 1777992889 | 14.44° C | 91% | 1012 hPa | 0 mm | 0 m/s | 84 W/m² | - |
* Rain latest hour (hover to see other rain measurements)
** Current wind speed in m/s (hover to see current wind gust speed)